Hourly Data Report for July 19, 2020

All times are specified in Local Standard Time (LST). Add 1 hour to adjust for Daylight Saving Time where and when it is observed.

OTTAWA INTL A
ONTARIO
Current Station Operator: NAVCAN

45°19'00.000" N
75°40'00.000" W
114.90 m
6106001
71628
YOW

Download Data

Hourly Data (July 2020)
Hourly Data Report for July 19, 2020
TIME Temp Definition
°C
Dew Point Definition
°C
Rel Hum Definition
%
Wind Dir Definition
10's deg

Wind Spd Definition
km/h
Visibility Definition
km
Stn Press Definition
kPa
Hmdx Definition


Wind Chill Definition


Weather Definition


00:00 23.7 20.1 80 21 9 24.1 99.80 31   LegendNANA
01:00 22.9 20.0 84 17 12 24.1 99.59 30   Mostly Cloudy
02:00 22.6 19.5 82 20 10 24.1 99.58 30   LegendNANA
03:00 22.5 19.5 83 19 8 24.1 99.60 30   LegendNANA
04:00 22.0 19.6 86 17 12 24.1 99.52 29   Mostly Cloudy
05:00 23.1 19.8 81 31 25 4.8 99.63 31   Thunderstorms,Moderate Rain Showers
06:00 21.7 20.4 92 16 10 24.1 99.54 30   LegendNANA
07:00 22.6 20.6 88 18 10 24.1 99.52 31   Mostly Cloudy
08:00 25.6 21.6 78 21 10 24.1 99.43 35   LegendNANA
09:00 28.9 21.9 66 21 17 24.1 99.36 38   LegendNANA
10:00 30.4 22.1 61 21 17 24.1 99.31 40   Mostly Cloudy
11:00 31.1 22.9 61 22 16 24.1 99.30 41   LegendNANA
12:00 30.8 22.0 59 21 25 24.1 99.23 40   LegendNANA
13:00 29.9 22.5 64 21 25 24.1 99.19 40   Mostly Cloudy
14:00 28.8 22.9 70 20 19 24.1 99.21 39   LegendNANA
15:00 25.9 23.9 89 19 20 16.1 99.13 37   Rain Showers
16:00 24.2 21.3 84 21 37 24.1 99.04 33   Mostly Cloudy
17:00 25.8 22.2 80 22 26 24.1 99.11 35   LegendNANA
18:00 26.6 22.4 78 24 26 24.1 99.05 36   LegendNANA
19:00 25.5 21.8 79 23 17 24.1 99.04 35   Mostly Cloudy
20:00 24.6 21.4 82 21 16 24.1 99.12 33   LegendNANA
21:00 23.8 21.2 85 19 12 24.1 99.14 32   LegendNANA
22:00 23.9 21.0 83 21 13 24.1 99.15 32   Cloudy
23:00 23.4 21.1 87 22 14 16.1 99.16 32   Rain Showers

Notes on Data Quality.

Legend

  • E = Estimated
  • M = Missing
  • NA = Not Available*
  • [empty] = Indicates an unobserved value
Date modified: